TimeCST,TemperatureF,Dew PointF,Humidity,Sea Level PressureIn,VisibilityMPH,Wind Direction,Wind SpeedMPH,Gust SpeedMPH,PrecipitationIn,Events,Conditions,WindDirDegrees,DateUTC
12:15 AM,46.6,43.3,88,29.96,10.0,SW,6.9,-,N/A,,Clear,220,2013-01-11 06:15:00
12:35 AM,46.8,43.2,87,29.95,10.0,SSW,6.9,-,N/A,,Clear,200,2013-01-11 06:35:00
12:55 AM,46.6,43.2,88,29.94,10.0,South,4.6,-,N/A,,Clear,190,2013-01-11 06:55:00
1:15 AM,46.2,43.0,88,29.94,10.0,South,5.8,-,N/A,,Clear,190,2013-01-11 07:15:00
1:35 AM,46.2,43.0,88,29.94,10.0,South,5.8,-,N/A,,Clear,190,2013-01-11 07:35:00
1:55 AM,46.4,42.8,87,29.95,10.0,South,6.9,-,N/A,,Clear,190,2013-01-11 07:55:00
2:15 AM,46.4,42.8,87,29.95,10.0,South,4.6,-,N/A,,Clear,190,2013-01-11 08:15:00
2:35 AM,46.2,42.8,88,29.95,10.0,South,5.8,-,N/A,,Clear,190,2013-01-11 08:35:00
2:55 AM,45.7,42.4,88,29.94,10.0,South,6.9,-,N/A,,Clear,170,2013-01-11 08:55:00
3:15 AM,45.7,42.6,89,29.93,10.0,South,8.1,-,N/A,,Clear,180,2013-01-11 09:15:00
3:35 AM,46.0,42.4,87,29.93,10.0,South,8.1,-,N/A,,Clear,180,2013-01-11 09:35:00
3:55 AM,45.5,42.4,89,29.92,10.0,South,5.8,-,N/A,,Clear,170,2013-01-11 09:55:00
4:15 AM,44.2,41.9,91,29.90,10.0,SSE,6.9,-,N/A,,Clear,160,2013-01-11 10:15:00
4:35 AM,44.2,41.9,91,29.90,10.0,South,5.8,-,N/A,,Clear,170,2013-01-11 10:35:00
4:55 AM,44.1,41.4,90,29.89,10.0,SSE,4.6,-,N/A,,Clear,150,2013-01-11 10:55:00
5:15 AM,44.2,41.5,90,29.89,10.0,SSE,3.5,-,N/A,,Clear,160,2013-01-11 11:15:00
5:35 AM,43.3,41.2,92,29.90,10.0,South,4.6,-,N/A,,Clear,170,2013-01-11 11:35:00
5:55 AM,43.9,41.5,91,29.90,10.0,South,4.6,-,N/A,,Clear,170,2013-01-11 11:55:00
6:15 AM,45.5,42.1,88,29.90,10.0,South,6.9,-,N/A,,Clear,180,2013-01-11 12:15:00
6:35 AM,45.7,42.1,87,29.90,10.0,South,5.8,-,N/A,,Clear,170,2013-01-11 12:35:00
6:55 AM,46.0,42.3,87,29.91,10.0,South,6.9,-,N/A,,Clear,190,2013-01-11 12:55:00
7:15 AM,46.6,42.3,85,29.91,10.0,South,8.1,-,N/A,,Clear,180,2013-01-11 13:15:00
7:35 AM,47.3,42.3,83,29.92,10.0,South,6.9,-,N/A,,Clear,190,2013-01-11 13:35:00
7:55 AM,47.5,42.8,84,29.91,10.0,South,8.1,-,N/A,,Clear,190,2013-01-11 13:55:00
8:15 AM,48.6,42.8,80,29.92,10.0,SSW,8.1,-,N/A,,Clear,200,2013-01-11 14:15:00
8:35 AM,49.6,42.8,77,29.93,10.0,SSW,8.1,-,N/A,,Clear,200,2013-01-11 14:35:00
8:55 AM,51.3,43.3,74,29.93,10.0,SSW,9.2,-,N/A,,Clear,200,2013-01-11 14:55:00
9:15 AM,53.8,43.9,69,29.94,10.0,SSW,9.2,16.1,N/A,,Clear,200,2013-01-11 15:15:00
9:35 AM,53.6,43.7,69,29.93,10.0,SSW,10.4,-,N/A,,Clear,200,2013-01-11 15:35:00
9:55 AM,54.0,43.9,69,29.93,10.0,SSW,9.2,-,N/A,,Clear,200,2013-01-11 15:55:00
10:15 AM,54.5,44.2,68,29.94,10.0,South,10.4,16.1,N/A,,Clear,190,2013-01-11 16:15:00
10:35 AM,56.5,44.6,64,29.93,10.0,South,10.4,19.6,N/A,,Clear,180,2013-01-11 16:35:00
10:55 AM,59.4,44.8,58,29.92,10.0,South,11.5,18.4,N/A,,Clear,180,2013-01-11 16:55:00
11:15 AM,61.7,44.1,52,29.91,10.0,SSW,13.8,18.4,N/A,,Clear,200,2013-01-11 17:15:00
11:35 AM,61.7,44.6,53,29.89,10.0,South,10.4,19.6,N/A,,Clear,190,2013-01-11 17:35:00
11:55 AM,63.7,45.1,51,29.88,10.0,North,-9999.0,-,N/A,,Clear,0,2013-01-11 17:55:00
12:15 PM,63.7,45.0,51,29.87,10.0,SSW,15.0,-,N/A,,Clear,200,2013-01-11 18:15:00
12:35 PM,64.8,44.8,48,29.85,10.0,North,-9999.0,-,N/A,,Clear,0,2013-01-11 18:35:00
12:55 PM,65.7,44.4,46,29.84,10.0,North,-9999.0,-,N/A,,Clear,0,2013-01-11 18:55:00
1:15 PM,66.4,44.4,45,29.83,10.0,SSW,15.0,-,N/A,,Clear,200,2013-01-11 19:15:00
1:55 PM,67.8,44.6,43,29.82,10.0,South,11.5,-,N/A,,Clear,190,2013-01-11 19:55:00
2:15 PM,68.7,44.4,42,29.81,10.0,North,-9999.0,-,N/A,,Clear,0,2013-01-11 20:15:00
2:35 PM,68.0,41.7,38,29.81,10.0,North,-9999.0,-,N/A,,Clear,0,2013-01-11 20:35:00
2:55 PM,69.3,42.3,38,29.80,10.0,North,-9999.0,-,N/A,,Clear,0,2013-01-11 20:55:00
3:15 PM,69.3,42.3,38,29.80,10.0,North,-9999.0,-,N/A,,Clear,0,2013-01-11 21:15:00
3:35 PM,70.9,41.2,34,29.80,10.0,South,11.5,-,N/A,,Clear,190,2013-01-11 21:35:00
3:55 PM,70.7,41.9,35,29.80,10.0,South,10.4,17.3,N/A,,Clear,190,2013-01-11 21:55:00
4:15 PM,70.2,42.1,36,29.80,10.0,South,12.7,-,N/A,,Clear,180,2013-01-11 22:15:00
4:35 PM,69.6,42.6,38,29.80,10.0,South,9.2,-,N/A,,Clear,190,2013-01-11 22:35:00
4:55 PM,67.3,42.8,41,29.80,10.0,South,6.9,-,N/A,,Clear,180,2013-01-11 22:55:00
5:15 PM,65.8,43.3,44,29.79,10.0,SSE,9.2,-,N/A,,Clear,160,2013-01-11 23:15:00
5:35 PM,65.3,43.2,45,29.79,10.0,SSE,8.1,-,N/A,,Clear,150,2013-01-11 23:35:00
5:55 PM,63.5,42.8,47,29.80,10.0,SSE,6.9,-,N/A,,Clear,160,2013-01-11 23:55:00
6:15 PM,63.1,43.7,49,29.80,10.0,SSE,6.9,-,N/A,,Clear,160,2013-01-12 00:15:00
6:35 PM,62.6,43.7,50,29.80,10.0,SSE,5.8,-,N/A,,Clear,160,2013-01-12 00:35:00
6:55 PM,62.2,43.9,51,29.81,10.0,SSE,5.8,-,N/A,,Clear,160,2013-01-12 00:55:00
7:15 PM,61.9,43.9,52,29.82,10.0,SSE,5.8,-,N/A,,Clear,160,2013-01-12 01:15:00
7:35 PM,61.9,44.1,52,29.82,10.0,SSE,5.8,-,N/A,,Clear,160,2013-01-12 01:35:00
7:55 PM,61.9,44.2,52,29.82,10.0,SSE,5.8,-,N/A,,Mostly Cloudy,160,2013-01-12 01:55:00
8:15 PM,62.6,44.6,52,29.82,10.0,SSE,5.8,-,N/A,,Overcast,160,2013-01-12 02:15:00
8:35 PM,63.1,45.0,51,29.83,10.0,SSE,5.8,-,N/A,,Overcast,160,2013-01-12 02:35:00
8:55 PM,62.8,45.0,52,29.83,10.0,SSE,3.5,-,N/A,,Overcast,160,2013-01-12 02:55:00
9:15 PM,62.2,45.0,53,29.83,10.0,SSE,5.8,-,N/A,,Overcast,160,2013-01-12 03:15:00
9:35 PM,61.7,45.7,56,29.83,10.0,SSE,4.6,-,N/A,,Overcast,150,2013-01-12 03:35:00
9:55 PM,62.1,46.9,58,29.84,10.0,SSE,4.6,-,N/A,,Overcast,160,2013-01-12 03:55:00
10:15 PM,61.7,47.7,60,29.84,10.0,SSE,4.6,-,N/A,,Overcast,160,2013-01-12 04:15:00
10:35 PM,59.0,46.4,63,29.84,10.0,ESE,3.5,-,N/A,,Overcast,110,2013-01-12 04:35:00
10:55 PM,58.1,46.8,66,29.84,10.0,SE,3.5,-,N/A,,Overcast,140,2013-01-12 04:55:00
11:15 PM,59.0,47.3,65,29.84,10.0,Calm,Calm,-,N/A,,Overcast,0,2013-01-12 05:15:00
11:35 PM,58.1,47.3,67,29.84,10.0,Calm,Calm,-,N/A,,Overcast,0,2013-01-12 05:35:00
11:55 PM,57.9,47.5,68,29.85,10.0,ESE,3.5,-,N/A,,Overcast,110,2013-01-12 05:55:00